Presure
396 360 343 343 327 326 323 322 319 341 274 295 331 362 309 262 284 302 279 288 247 241 224 255 263 253 221 214 216 210 216 214 211 210 201 216 216 221 215 210 207 167 197 188 201 200 204 127 227 170 174 201 134 207
317 368 344 342 318 305 306 304 304 323 270 300 342 328 287 261 282 307 269 291 255 238 228 247 258 252 251 216 208 209 212 206 207 209 231 231 224 209 217 217 208 207 208 200 204 206 194 199 218 198 207 214 215 216
272 338 326 331 320 299 307 294 314 290 275 310 300 292 271 259 267 300 259 275 257 240 222 232 247 245 243 230 213 209 208 211 209 215 208 217 205 201 217 220 208 203 199 207 209 208 199 211 203 212 213 207 215 228
358 353 348 327 333 323 308 295 296 269 285 291 298 278 269 265 272 303 247 263 254 229 225 225 228 258 256 259 236 220 213 209 210 211 212 213 218 211 214 196 205 202 206 200 208 201 202 221 217 210 212 218 219 204
404 325 378 345 328 329 301 310 264 263 276 314 277 274 260 261 287 267 252 258 252 229 230 228 219 245 267 238 233 228 229 229 223 222 219 221 223 223 220 206 209 209 217 215 215 181 153 222 211 217 206 211 212 200
287 309 404 351 334 330 326 299 284 252 262 280 264 259 258 287 295 280 289 256 249 238 228 223 227 223 223 252 242 234 233 233 231 226 227 224 228 224 224 239 244 233 236 237 218 217 215 199 213 217 208 213 211 214
271 298 382 400 348 311 320 323 320 262 256 266 264 250 254 255 281 268 272 255 247 246 230 227 230 227 228 228 236 234 239 235 228 234 229 232 248 245 235 224 221 230 229 228 225 195 206 210 213 217 225 214 219 199
266 268 303 380 400 347 315 312 330 294 254 249 266 266 254 252 275 282 266 253 249 254 227 237 236 237 228 216 239 252 253 243 244 239 236 241 227 234 223 230 232 223 220 220 221 205 201 220 219 217 226 220 214 203
255 270 264 307 390 396 353 309 307 329 252 256 246 266 269 251 266 260 270 247 238 240 231 241 232 232 212 224 210 240 238 214 239 227 215 233 239 229 241 229 208 209 220 213 220 209 211 224 223 222 216 211 218 220
241 260 273 262 290 365 384 389 339 316 304 256 252 249 243 255 241 228 297 256 254 239 257 250 239 236 238 230 226 223 219 226 223 225 233 241 210 215 213 212 212 212 214 212 212 217 222 211 213 229 226 223 219 225
251 257 259 273 261 284 366 379 391 334 322 320 314 253 251 246 244 240 242 241 258 248 254 243 241 242 209 235 230 228 225 227 232 233 230 228 218 210 210 213 211 211 212 215 217 210 219 218 217 221 230 235 231 231
267 267 264 257 269 258 280 348 376 371 387 331 314 306 289 282 250 251 254 239 255 268 247 233 234 249 241 239 237 237 232 234 216 218 219 220 220 220 223 222 215 214 215 215 218 219 219 220 228 226 230 233 236 248
263 267 270 259 257 268 255 276 311 396 371 355 364 356 320 312 303 260 258 247 243 254 258 233 237 266 260 246 222 247 216 222 233 238 236 234 236 226 225 225 225 230 224 225 224 225 227 232 239 251 243 235 240 249
250 253 267 265 255 256 269 258 278 308 382 364 361 355 357 364 329 311 315 314 266 258 252 252 259 272 259 273 242 260 241 250 244 239 235 236 233 234 232 252 234 239 239 238 236 240 243 248 250 257 250 250 255 254
259 266 269 263 261 252 256 271 257 279 309 372 357 344 341 439 365 359 349 306 313 319 295 273 268 262 257 267 268 257 251 266 252 255 264 265 250 250 251 252 253 255 256 255 260 268 273 274 268 274 258 270 256 313
258 261 273 264 260 260 250 256 267 261 279 319 355 341 331 436 420 412 379 350 357 346 317 306 303 308 313 301 275 270 265 266 265 269 273 274 273 271 275 278 300 285 287 288 284 287 333 349 369 354 363 332 323 341
255 260 249 268 261 259 256 250 265 256 265 280 334 347 333 323 419 430 434 412 396 383 383 338 342 359 360 361 409 357 421 321 319 320 317 313 317 312 324 350 342 395 386 388 369 355 340 328 332 342 335 327 324 316
255 251 266 263 268 257 259 251 252 266 258 271 289 348 335 328 308 376 404 360 418 435 442 418 402 387 383 385 386 397 443 437 434 425 434 433 393 380 372 364 352 341 331 334 343 340 328 321 313 315 318 314 313 307
254 254 267 283 274 260 255 257 248 261 251 262 277 292 347 332 315 298 305 347 364 377 393 404 410 417 416 413 413 416 414 408 385 370 357 347 339 334 328 328 329 326 320 310 309 309 307 305 302 300 297 293 292 291
254 253 262 274 282 265 254 256 253 252 259 254 268 281 293 331 342 308 288 290 303 319 328 334 339 344 347 350 350 348 339 335 325 318 321 331 325 313 305 303 301 300 298 295 290 287 284 282 278 277 277 277 279 284
253 263 266 272 285 267 259 248 256 250 263 246 256 272 282 297 339 350 298 295 298 305 298 301 303 303 307 305 303 306 311 332 334 307 297 297 296 294 286 283 278 275 272 271 273 276 293 297 302 305 306 308 311 315
263 271 269 275 282 283 259 255 251 255 251 251 246 263 287 288 320 354 414 306 314 322 273 287 305 322 322 328 334 318 294 295 292 285 279 277 271 269 268 267 268 299 298 287 284 281 280 279 281 283 280 283 286 284
266 263 260 277 288 282 266 261 251 255 248 255 248 249 287 278 294 345 332 334 327 330 333 335 319 292 290 293 289 283 276 270 264 262 262 262 262 261 277 276 274 271 268 265 267 270 269 278 281 279 281 280 283 291
256 259 271 274 286 281 288 264 255 252 252 257 245 248 278 287 279 298 344 335 334 306 289 292 290 282 277 269 261 258 256 259 256 250 256 268 271 264 263 262 262 262 264 263 265 265 269 274 276 276 274 275 281 282
267 276 274 269 276 280 282 281 260 253 255 257 245 243 249 287 283 283 286 292 296 290 281 277 267 261 259 256 251 247 248 253 255 268 267 261 258 258 259 253 253 258 256 254 260 262 263 263 265 267 269 271 271 279
271 267 266 272 280 281 281 292 263 254 253 252 251 239 241 255 290 286 275 274 275 273 266 263 253 249 244 246 245 247 248 243 254 261 255 259 259 257 253 251 248 248 248 247 252 261 256 253 260 262 265 271 271 275
278 275 275 278 282 280 289 288 275 258 251 253 256 242 238 245 251 262 264 263 261 257 256 245 246 246 242 240 238 238 248 250 269 258 258 251 249 248 243 246 249 248 250 251 251 251 257 260 263 267 268 265 272 278
279 277 276 281 283 281 288 288 293 263 255 253 257 247 241 239 239 247 236 257 245 247 245 243 244 241 237 235 244 244 255 270 262 253 247 245 247 239 244 241 247 238 239 242 250 246 243 253 256 261 269 274 273 278
286 288 284 278 281 288 287 288 294 284 262 251 252 254 243 242 235 236 245 252 240 238 243 242 238 239 237 237 244 241 244 256 248 256 245 242 237 239 240 237 239 240 237 237 239 240 243 245 251 257 260 273 278 279
281 283 285 286 291 289 284 288 292 292 282 264 251 255 252 241 238 237 234 240 235 237 240 237 234 234 235 236 236 236 237 260 250 248 245 243 239 239 238 239 239 238 235 235 241 238 241 244 249 254 258 267 284 280
290 294 292 283 286 291 291 291 298 297 289 270 262 253 255 252 241 237 235 234 237 232 238 236 233 232 235 234 233 230 234 252 250 249 250 242 239 236 236 236 238 237 235 235 238 243 239 243 250 249 256 260 284 284
299 295 293 295 294 297 296 293 302 299 292 287 265 262 255 256 252 244 238 237 234 230 233 234 237 237 235 233 228 233 237 245 244 241 251 243 237 236 238 228 233 236 237 233 232 238 240 244 249 251 249 261 267 286
306 304 309 307 307 312 303 295 301 300 297 285 286 266 263 255 256 254 249 240 239 236 236 236 236 237 236 238 238 241 241 245 247 245 244 242 238 240 239 232 232 236 235 235 231 237 240 239 248 251 249 258 261 287
Wind_Speed
11 9 18 25 39 38 39 38 37 25 59 60 61 65 82 75 82 89 88 95 91 86 85 84 87 101 106 113 113 112 112 111 117 120 116 113 109 108 106 101 108 86 112 104 110 108 97 52 89 64 70 81 40 80
26 13 22 31 44 42 40 49 46 38 60 55 53 68 76 70 72 79 81 87 87 83 83 79 89 99 104 106 107 109 110 112 114 116 106 102 103 104 101 101 108 105 106 108 107 103 102 99 89 88 85 85 81 78
29 5 3 33 46 42 45 54 49 55 60 56 64 64 70 69 69 73 75 83 87 81 82 84 89 91 95 103 112 111 110 111 112 113 112 107 109 102 101 97 104 101 104 103 102 97 100 97 94 89 86 83 79 79
12 3 22 14 36 46 51 57 58 59 60 59 64 70 70 70 70 69 75 81 86 82 85 83 80 82 84 87 103 112 112 111 110 112 112 111 110 105 101 104 100 101 99 103 103 99 99 93 92 91 88 87 81 80
7 13 19 23 32 43 47 50 54 55 60 54 66 66 65 67 69 74 76 81 86 85 83 80 83 82 87 96 103 107 110 111 112 112 113 113 111 108 105 103 98 103 102 100 94 76 61 94 95 94 88 88 88 83
38 12 3 24 28 30 40 51 56 52 55 61 62 60 58 66 67 75 76 85 90 90 88 89 89 89 85 101 105 105 108 109 109 109 108 108 109 107 103 99 94 98 97 98 100 99 96 87 99 102 92 93 94 93
32 36 5 3 27 25 32 43 50 58 57 61 64 62 66 67 66 73 78 83 88 90 90 87 90 86 85 87 93 98 104 108 103 106 102 105 103 100 94 90 98 102 99 97 100 86 91 98 102 104 107 99 98 91
31 26 32 3 5 26 39 37 51 57 57 57 65 68 63 64 71 76 83 86 89 95 76 84 86 89 86 82 88 95 97 99 99 97 96 98 88 92 88 97 101 102 99 96 97 90 91 109 109 108 110 104 103 100
26 26 20 26 1 7 35 40 41 51 57 60 56 64 65 63 70 73 81 80 80 83 82 91 89 91 73 87 74 93 92 84 93 91 81 93 99 90 96 92 90 89 95 92 98 98 100 105 113 112 110 105 111 114
18 21 20 14 21 0 8 23 42 53 56 65 62 60 60 67 66 65 77 84 84 82 93 96 93 92 94 91 86 83 78 86 84 87 92 95 81 86 87 87 88 90 93 94 97 100 101 99 101 107 115 117 115 118
22 19 15 16 9 15 6 7 15 42 44 51 61 65 67 66 68 69 71 74 84 83 91 90 90 94 77 94 90 89 83 85 90 88 86 83 85 86 88 90 90 90 92 95 97 97 98 99 101 105 110 112 115 115
24 18 14 12 12 6 12 7 10 17 24 53 56 62 70 71 72 73 76 75 83 90 86 86 87 100 98 97 92 93 91 92 83 85 84 88 88 90 92 91 91 93 94 96 100 102 103 103 106 105 107 110 112 113
27 22 17 12 9 10 7 9 13 13 21 31 35 55 67 69 73 83 82 82 83 89 92 86 91 107 107 101 85 105 84 88 98 102 100 99 98 96 96 97 100 104 103 104 105 108 108 108 110 113 108 108 112 115
30 26 21 16 12 10 10 9 10 15 9 14 21 32 43 50 74 77 78 94 94 92 91 92 97 102 102 108 101 112 101 108 104 101 101 101 100 103 104 113 105 107 106 109 110 111 111 111 113 113 107 107 111 112
29 23 20 20 16 13 11 13 12 14 19 11 14 19 27 13 43 54 73 83 85 90 99 100 99 99 100 104 107 104 103 111 105 109 112 112 108 109 109 109 111 112 114 114 114 118 118 117 115 117 101 115 102 87
27 23 21 21 20 17 13 12 13 13 16 18 10 10 13 11 17 23 38 60 68 77 93 94 96 98 101 105 108 112 111 113 114 116 115 115 116 116 118 118 116 112 108 110 111 115 80 55 26 40 30 59 63 37
26 24 24 22 22 21 17 14 14 12 14 17 12 9 9 8 5 10 16 27 35 43 47 73 75 73 76 78 45 86 37 101 100 100 100 101 105 105 104 75 81 22 27 19 18 20 28 36 32 22 24 28 30 33
29 26 25 24 23 23 20 17 15 14 12 15 18 9 10 8 4 4 3 14 10 15 20 31 38 43 45 44 44 41 18 20 23 24 21 16 13 14 15 15 15 17 21 20 14 13 16 21 25 24 22 25 27 27
35 28 27 25 24 24 21 20 17 15 13 13 16 18 9 8 6 3 6 4 6 6 3 4 7 9 13 15 15 15 13 12 16 16 16 15 16 15 15 13 10 10 11 14 15 14 15 16 18 21 23 28 32 31
36 32 29 27 26 26 25 22 20 16 14 12 14 15 17 10 10 8 9 4 3 6 5 9 11 13 14 15 15 16 16 17 17 17 15 13 14 14 12 10 9 7 7 7 10 13 17 21 25 29 31 35 38 39
38 36 32 30 27 28 27 25 22 19 15 13 12 14 15 16 9 14 12 9 6 7 12 13 13 14 14 17 18 16 17 14 16 20 17 16 15 13 10 8 7 8 11 14 17 19 20 22 23 24 26 28 32 35
43 39 35 31 28 30 30 28 25 22 18 15 12 12 12 12 12 9 20 15 11 7 8 7 11 12 14 14 16 20 21 21 21 19 17 15 12 9 7 7 7 4 5 8 12 15 18 21 24 27 29 31 34 37
43 39 35 33 30 30 33 31 28 25 21 17 14 12 11 7 10 7 6 12 11 11 12 13 18 22 23 24 25 25 23 20 17 15 13 10 8 6 2 2 4 7 10 13 17 19 22 26 26 28 30 33 37 41
44 43 41 34 32 34 33 32 32 29 24 20 17 13 9 5 2 2 6 13 19 22 23 24 26 26 26 23 20 18 16 14 12 10 8 5 5 3 1 4 6 9 12 15 18 21 24 27 28 29 32 35 39 42
51 47 40 38 36 37 35 33 35 32 27 25 22 18 14 7 7 8 9 12 18 24 26 28 26 23 22 19 16 14 12 11 8 7 7 5 4 3 3 5 8 11 14 17 20 23 25 27 30 32 35 37 40 45
52 44 41 43 41 39 39 34 38 36 32 30 27 25 21 16 12 15 18 20 21 23 24 25 22 19 16 15 14 13 11 12 8 8 8 6 4 3 5 7 11 14 16 20 25 27 29 31 33 36 38 41 43 46
53 49 49 47 45 42 39 37 40 40 38 35 31 30 28 23 20 19 21 22 23 22 22 19 19 19 17 15 16 15 11 10 10 10 9 8 7 7 10 11 14 15 19 23 26 28 32 36 39 40 42 44 47 50
55 54 51 49 48 45 41 40 40 46 45 41 37 36 32 30 27 26 27 25 24 24 22 20 19 19 19 18 16 15 9 7 10 11 12 12 10 14 12 13 15 18 20 24 28 30 32 38 41 44 48 50 51 53
54 54 54 51 50 48 44 43 43 47 49 44 42 41 41 35 35 33 31 29 28 26 25 24 23 22 21 20 17 17 15 13 15 13 15 16 18 17 16 19 19 21 22 25 27 31 34 38 42 47 50 55 55 55
57 56 54 53 50 48 49 48 46 46 50 52 47 46 46 43 43 39 36 35 33 32 30 29 28 27 26 24 22 21 20 16 18 19 19 20 20 20 20 21 22 24 25 27 31 32 35 39 43 49 51 58 58 57
61 61 58 54 51 52 52 51 50 49 50 56 56 52 51 50 48 45 42 40 39 37 36 35 33 32 30 29 27 26 25 21 21 22 23 24 24 24 25 25 26 27 29 31 33 36 37 41 46 48 53 57 60 59
63 61 59 58 57 55 53 53 54 52 53 54 60 59 56 54 54 53 50 47 44 42 41 39 38 37 35 33 32 31 29 27 28 28 27 28 28 28 28 27 28 30 31 32 33 37 40 43 47 50 51 58 61 60
65 62 61 60 57 57 57 56 56 56 56 56 57 63 62 57 59 58 57 54 51 48 47 45 43 41 38 38 37 35 33 31 31 32 33 33 32 32 31 30 31 33 34 36 35 39 43 43 49 51 52 58 61 61
Wind_Direction
312 239 151 153 141 130 133 138 155 156 189 190 191 192 199 206 207 208 208 209 213 215 221 221 221 220 218 224 228 232 234 235 239 244 249 248 249 249 250 250 253 258 263 269 270 272 276 279 269 275 281 278 277 275
4 196 175 149 145 153 159 158 161 147 188 187 182 191 200 206 208 208 208 210 213 214 220 219 218 221 220 224 230 232 236 237 240 244 246 246 248 250 250 249 253 257 260 263 266 269 273 274 272 275 276 276 278 275
12 340 297 165 160 175 166 169 160 176 188 180 189 193 198 203 208 209 207 210 212 213 221 221 220 224 224 222 228 233 236 240 243 245 249 248 252 253 251 252 254 259 261 263 265 267 269 270 273 273 272 274 271 273
359 237 202 207 174 171 175 177 174 189 186 189 189 195 200 202 205 208 208 209 211 214 220 223 225 220 222 223 227 230 234 239 243 247 250 252 252 252 251 255 256 259 261 264 266 267 269 268 269 272 271 272 269 266
2 3 203 200 198 177 185 179 195 198 195 180 199 201 202 204 204 206 207 209 211 218 221 221 225 225 217 220 225 230 234 237 240 244 248 251 254 256 255 255 257 258 260 262 262 265 266 265 267 270 269 270 271 268
15 16 75 200 200 195 183 192 189 206 203 196 203 206 209 206 204 205 204 209 211 216 219 223 225 227 227 221 225 230 233 237 240 244 247 250 251 255 257 257 258 258 257 254 259 263 266 269 269 270 272 274 271 273
10 18 7 133 205 203 197 186 188 202 210 205 205 211 211 210 208 209 209 211 216 217 223 226 227 229 230 231 231 233 235 238 243 244 247 249 251 251 252 255 258 258 259 259 259 266 270 272 273 273 273 273 272 267
7 7 21 18 179 207 200 198 189 196 211 218 213 212 215 216 211 209 210 214 217 218 232 232 231 230 234 242 236 232 232 237 241 245 247 247 252 250 253 254 253 256 260 262 261 267 270 268 269 271 271 271 272 271
360 7 4 24 297 205 212 206 209 195 218 217 222 220 219 223 218 220 215 221 225 226 231 229 234 236 239 242 243 240 243 241 245 248 253 252 251 254 251 253 258 263 262 266 265 267 268 269 269 269 272 274 275 275
342 355 9 4 23 283 229 218 217 209 210 221 225 224 222 221 226 228 216 224 227 234 225 227 235 236 236 242 246 250 251 250 253 254 254 254 254 256 256 257 260 262 264 266 266 267 269 271 274 273 272 273 273 274
331 338 348 8 0 19 54 208 221 223 216 218 216 228 228 228 228 230 231 232 230 236 231 236 240 239 240 244 248 250 252 253 254 254 256 255 251 253 255 257 258 259 262 263 265 266 271 272 273 275 275 275 275 275
330 328 330 336 0 322 8 9 220 219 223 225 223 224 225 226 233 233 234 236 233 233 236 240 241 240 243 247 250 252 255 257 250 252 253 254 255 257 259 260 262 264 266 268 270 271 272 273 273 274 276 277 276 277
320 319 316 311 317 345 284 349 8 233 223 224 225 230 226 224 224 233 233 236 237 237 235 241 243 241 243 247 250 251 252 255 257 260 261 262 264 264 264 265 265 267 267 268 269 270 271 273 275 276 276 276 278 278
306 307 305 303 294 298 329 275 335 0 260 241 233 230 232 233 232 229 229 228 237 238 239 240 242 242 243 244 250 249 255 255 257 260 262 263 264 265 267 267 269 270 271 271 270 271 274 275 277 278 277 278 282 281
305 302 292 293 291 282 295 321 287 333 350 266 257 249 243 243 235 233 235 233 234 235 238 242 243 245 247 246 248 253 256 256 260 260 261 262 263 264 266 268 270 272 271 272 274 275 276 277 278 281 279 283 283 285
302 294 290 284 284 283 275 290 304 301 328 345 297 283 252 232 239 242 237 236 236 240 242 242 242 244 244 247 251 252 255 257 258 260 263 265 266 267 268 269 271 272 274 275 276 277 277 276 268 273 272 278 279 279
293 289 277 283 279 279 276 273 300 279 309 331 337 305 298 280 246 239 237 238 243 244 243 242 243 247 249 252 256 254 255 255 258 261 263 264 266 268 271 271 271 254 262 254 254 257 262 270 268 270 273 275 277 282
287 282 289 275 270 269 273 270 279 295 289 321 340 335 314 306 280 26 284 244 249 246 244 244 247 250 251 251 251 252 241 239 236 249 251 240 218 226 230 231 234 236 243 249 250 251 253 262 270 276 286 289 289 290
283 285 290 288 268 262 264 267 265 288 270 305 331 343 333 292 287 249 28 66 106 109 126 191 203 203 209 215 223 229 227 209 181 178 188 196 199 208 214 216 217 218 223 240 252 264 272 277 283 287 292 293 294 295
278 278 282 287 272 257 259 263 264 269 279 284 317 338 342 332 245 246 243 212 35 49 93 126 132 136 144 147 147 150 154 156 168 180 186 183 172 175 185 193 200 214 231 253 266 275 281 286 289 292 292 294 297 298
271 279 281 280 273 252 252 256 261 263 277 259 294 320 334 338 316 233 232 227 207 199 165 153 148 152 153 160 165 167 169 177 168 155 160 160 160 158 165 177 207 241 267 282 289 293 299 302 307 311 315 317 315 312
273 276 273 272 269 254 246 247 252 255 259 255 254 296 325 331 331 300 242 223 210 192 165 176 182 179 173 166 159 148 143 143 143 146 152 156 168 188 213 242 267 351 348 331 325 324 323 322 322 321 320 321 321 320
266 265 265 275 267 254 238 238 243 246 246 249 248 261 317 319 327 317 245 224 162 150 157 152 146 140 139 138 136 136 138 143 154 166 177 183 196 221 145 22 355 340 327 324 329 328 329 331 330 329 330 330 331 333
259 262 269 267 263 251 245 231 235 238 237 238 232 241 285 281 272 297 154 158 151 148 145 144 142 141 139 141 146 153 163 168 177 202 207 169 142 196 303 329 335 335 337 336 342 340 340 340 340 336 333 333 336 336
258 262 261 258 259 252 246 229 227 232 229 231 224 223 230 232 205 187 171 164 156 150 148 145 148 151 152 155 167 183 193 190 190 168 166 182 215 250 300 292 320 340 340 334 338 337 338 337 340 339 338 337 337 340
254 253 256 259 258 251 244 236 221 226 226 226 219 218 218 219 188 178 170 169 167 162 161 157 162 168 178 183 198 201 208 229 215 192 224 217 225 267 300 316 316 321 322 326 336 341 337 334 339 337 337 338 337 338
252 253 254 254 251 247 248 236 219 221 224 224 218 217 216 215 209 191 185 182 180 180 177 188 185 187 195 207 225 236 233 240 201 218 220 240 261 276 282 306 321 326 339 339 339 339 343 340 340 340 339 337 338 339
246 247 247 248 246 244 244 236 227 218 221 221 217 215 214 214 215 209 211 196 201 200 204 206 203 206 217 228 229 238 244 225 224 237 250 260 270 278 295 307 323 314 323 331 335 335 335 343 343 343 343 341 340 341
238 240 241 241 242 242 239 234 230 220 218 219 218 214 217 213 218 220 213 206 210 214 212 213 218 220 227 233 237 240 249 239 251 246 251 262 271 283 291 297 305 310 312 319 326 330 335 337 341 343 343 343 341 341
234 236 237 238 238 235 234 233 230 223 219 217 219 217 216 216 219 219 223 220 222 220 217 221 226 231 234 238 241 248 254 252 251 255 259 264 269 276 286 295 300 306 312 317 325 327 332 335 338 341 342 343 340 341
236 236 236 234 233 234 232 232 229 224 219 216 217 218 218 217 220 223 222 226 226 233 226 228 232 237 237 242 247 253 258 258 259 261 260 262 269 275 282 291 300 304 309 314 321 328 329 333 336 337 341 341 341 341
233 233 234 233 232 232 229 229 228 222 219 218 218 219 220 219 220 222 226 224 228 233 234 237 236 236 240 245 252 255 257 257 259 263 265 264 270 276 282 288 296 302 307 309 314 323 327 330 334 336 336 339 341 341
231 230 230 230 230 230 228 224 224 223 220 218 220 220 221 221 222 223 224 227 228 230 233 236 238 241 244 246 249 251 252 255 257 261 264 267 272 276 281 288 293 300 305 309 311 319 324 326 330 334 334 337 338 340